Location: Ekehaar
(52.9520°N, 6.6036°E)
Time: 14:40:24
(UTC+00:00)

Daily predictions for brighter satellites

Satellite Brightness Start Highest point End
(mag) Time Altitude Azimuth Time Altitude Azimuth Time Altitude Azimuth
Cosmos 1470 Rocket 4.3 20:45:45 10° N 20:49:59 40° ENE 20:54:10 10° SE
Cosmos 923 Rocket 4.5 20:45:14 10° S 20:50:07 42° ESE 20:55:01 10° NE
NOSS 2-1 (D) 4.4 20:49:16 10° S 20:51:54 19° SE 20:54:13 10° ENE
CZ-4B R/B 3.7 20:47:58 10° SSE 20:53:07 76° ENE 20:58:24 10° NNW
Cosmos 1953 2.1 20:53:29 10° NNW 20:57:04 76° W 21:00:37 10° S
Cosmos 1328 Rocket 3.8 20:55:14 10° S 20:59:26 52° E 21:03:38 10° NNE
Cosmos 1151 Rocket 4.1 20:55:38 10° SSW 20:59:49 48° WNW 21:04:02 10° N
GP-B 3.1 20:56:06 10° N 21:00:30 82° E 21:04:53 10° S
S3M 4.1 20:56:10 10° S 21:02:11 62° E 21:08:17 10° NNE
Cosmos 1553 Rocket 4.4 20:57:16 10° SSW 21:03:35 70° WNW 21:09:50 10° N
Cosmos 1371 Rocket 4.1 20:59:33 10° NNW 21:04:49 74° ENE 21:10:01 10° SSE
BREEZE-M R/B 4.1 21:03:34 10° SW 21:07:32 40° SSE 21:14:52 10° E
Cosmos 1709 Rocket 4.1 21:01:10 10° N 21:07:35 81° E 21:13:58 10° SSE
NOSS 3-2 (C) 3.7 21:02:25 10° WSW 21:07:39 70° NW 21:14:07 10° NE
Cosmos 2082 Rocket 2.5 21:02:08 10° NNW 21:07:44 60° NE 21:13:16 10° SE
CZ-2C R/B 2.4 21:05:31 10° SSE 21:08:09 46° ENE 21:10:48 10° N
NOSS 2-1 (C) 4.1 21:08:38 10° S 21:11:37 23° SE 21:14:12 10° ENE
Cosmos 2278 Rocket 2.6 21:09:20 10° S 21:14:38 42° ESE 21:19:57 10° NE
Cosmos 494 Rocket 4.5 21:10:30 10° S 21:15:25 43° ESE 21:20:23 10° NE
CENTAUR R/B 4.4 21:10:44 10° WNW 21:16:55 38° N 21:24:31 10° ENE
Cosmos 1666 Rocket 3.8 21:12:50 10° NNW 21:17:09 70° W 21:21:25 10° S
Meteor 1-16 Rocket 4.3 21:13:54 10° NNW 21:19:32 84° ENE 21:25:19 10° SSE
Meteor 1-21 4.4 21:14:12 10° S 21:19:44 62° E 21:25:21 10° NNE
USA-17 4.2 21:16:55 10° NW 21:20:08 85° NE 21:23:13 11° SE
SPOT 3 Rocket 4.3 21:18:40 10° S 21:23:37 48° W 21:28:38 10° NNW
USA 238 DEB 3.6 21:17:47 10° SSW 21:23:47 57° SE 21:30:27 10° NE
USA 238 3.6 21:18:02 10° SSW 21:24:01 57° SE 21:30:40 10° NE
Lacrosse 5 rocket 1.3 21:21:29 10° WSW 21:25:04 69° NNW 21:28:35 10° ENE
Cosmos 1943 Rocket 2.2 21:20:50 10° SSW 21:26:24 64° ESE 21:31:58 10° NE
ARIANE 5 R/B 4.3 21:28:35 10° ESE 21:32:05 23° ENE 21:35:34 10° N
BREEZE-M DEB (TANK) 4.4 21:12:30 10° WSW 21:35:30 74° S 21:41:13 10° E
Cosmos 1515 Rocket 3.7 21:36:36 11° S 21:40:40 56° E 21:44:55 10° NNE
Meteor 1-12 Rocket 4.3 21:36:32 10° NNW 21:42:16 89° ENE 21:47:40 12° SSE
USA 81 4.3 21:39:26 10° N 21:44:39 58° E 21:49:12 13° SSE
Cosmos 1624 Rocket 4.5 21:40:23 10° NNW 21:45:35 57° WSW 21:50:25 12° S
Okean 2 3.2 21:42:54 10° S 21:46:44 79° E 21:50:37 10° NNE
Cosmos 1633 Rocket 4.0 21:42:43 10° NNW 21:46:53 44° W 21:51:03 10° SSW
ALOS 2 4.1 21:44:18 10° ESE 21:48:00 27° ENE 21:51:41 10° N
Cosmos 1680 Rocket 3.5 21:43:34 10° SSW 21:48:45 87° ESE 21:54:00 10° NNE
COSMOS 2406 3.6 21:44:15 10° NNW 21:49:55 61° NE 21:55:18 11° SE
Cosmos 1400 Rocket 2.5 21:46:36 10° NNW 21:50:17 88° ENE 21:53:10 15° SSE
Cosmos 2369 Rocket 4.0 21:50:43 10° SE 21:53:35 14° E 21:56:29 10° ENE
Cosmos 2056 Rocket 4.2 21:49:44 10° NW 21:54:36 46° WSW 21:59:06 12° S
ARIANE 6 FM1 Upper Stage 4.4 21:58:06 14° SE 21:59:21 16° ESE 22:01:57 10° E
Cosmos 1656 Rocket 4.4 21:59:36 14° SSE 22:03:40 34° ESE 22:08:39 10° NE
USA 215 3.3 22:01:50 10° ESE 22:08:24 84° SSW 22:14:58 10° WNW
USA 276 2.5 22:09:24 10° SW 22:11:30 26° SSE 22:13:50 10° E
Cosmos 2074 Rocket 4.0 22:07:13 10° N 22:13:29 83° E 22:18:40 15° SSE
Okean 1-7 4.5 22:12:10 14° SE 22:14:45 23° E 22:18:08 10° NE
NOSS 2-1 (E) 2.7 22:13:02 10° SW 22:16:44 78° SE 22:19:51 10° NE
Spot 4 4.1 22:17:54 16° SSE 22:21:44 61° ENE 22:26:31 10° N
Cosmos 1328 4.2 22:21:51 20° SSE 22:23:55 39° E 22:27:15 10° NNE
NOSS 3-1 (C) 4.1 22:21:46 17° SSE 22:24:09 25° ESE 22:28:30 10° ENE
USA 308 2.9 22:26:25 25° SSE 22:26:49 26° SE 22:29:57 10° E
Helios 1B rocket 1.9 22:24:53 20° SSE 22:27:08 81° ENE 22:30:37 10° NNW
Lacrosse 4 Rocket 2.6 22:23:56 10° NNW 22:27:55 39° NE 22:31:52 10° ESE
Cosmos 1812 2.4 22:29:23 10° NW 22:30:50 23° W 22:31:08 22° WSW
Cosmos 1933 Rocket 4.2 22:30:56 10° NNW 22:35:05 46° W 22:38:23 15° SSW
USA 59 Rocket 0.2 22:32:08 10° WSW 22:35:20 46° NW 22:38:12 10° NE
Cosmos 1441 Rocket 3.1 22:33:46 16° SSW 22:36:13 62° WNW 22:39:26 10° N
CSL-04 DEB 4.2 22:35:05 20° SSE 22:37:29 74° ENE 22:41:08 10° NNW
ATLAS 5 CENTAUR R/B 1.6 22:37:18 24° SSE 22:37:58 27° SE 22:40:38 10° ENE
Okean 3 3.8 22:34:54 13° SSW 22:38:23 58° WNW 22:42:22 10° N
BREEZE-M DEB (TANK) 3.0 22:31:55 10° W 22:39:39 70° SSW 22:42:17 11° ESE
NOSS 2-1 (D) 3.6 22:36:58 10° WSW 22:40:17 50° NW 22:43:13 10° NE
Nadezhda 1 Rocket 4.1 22:36:02 17° S 22:40:52 65° E 22:47:05 10° NNE
COSMOS 2455 4.4 22:38:34 14° SE 22:41:35 20° ESE 22:45:46 10° ENE
GEOS 3 Rocket 3.9 22:41:28 10° SE 22:46:49 74° NE 22:52:13 10° NW
Cosmos 2344 3.9 22:40:41 10° WSW 22:48:05 65° NW 22:55:27 10° NE
Cosmos 2082 Rocket 3.4 22:46:39 10° NW 22:51:28 30° WSW 22:55:23 14° SSW
Cosmos 1452 Rocket 3.9 22:47:04 10° NNW 22:52:12 54° WSW 22:55:52 19° S
ACS3 Solar Sail 3.1 22:48:08 10° NE 22:52:44 25° E 22:56:47 12° SE
Helios 1A 3.4 22:49:00 10° N 22:52:53 54° WNW 22:56:22 12° SW
Cosmos 1869 4.5 22:51:26 10° N 22:54:28 28° ENE 22:56:49 14° SE
MetOp-A 4.1 22:52:47 16° SE 22:55:31 43° ENE 22:59:07 10° N
SL-4 R/B 2.3 22:55:57 26° S 22:56:26 28° SSE 22:59:13 10° E
Cosmos 2278 Rocket 3.3 22:53:16 10° WSW 22:58:42 45° NW 23:04:10 10° NNE
NOSS 2-1 (C) 4.0 22:57:00 10° WSW 23:00:13 41° NW 23:03:05 10° NE
Cosmos 2154 Rocket 4.4 22:55:31 10° NNW 23:01:33 54° W 23:06:28 16° SSW
Lacrosse 5 rocket 2.3 22:58:32 10° WNW 23:01:55 41° N 23:05:14 10° ENE
Cosmos 614 Rocket 3.9 22:57:56 15° SSW 23:02:11 86° ESE 23:07:17 10° NNE
Cosmos 1174 3.8 23:01:17 10° SW 23:05:04 65° NW 23:08:19 10° NE
ARIANE 5 R/B 3.0 23:05:10 20° S 23:08:05 56° W 23:12:26 10° NNW
Meteor 2-5 Rocket 4.3 23:04:24 18° SSE 23:08:30 50° E 23:14:13 10° NNE
CENTAUR R/B 4.2 23:02:14 10° NW 23:09:17 45° NNE 23:17:47 10° E
CZ-2C R/B 3.9 23:04:43 10° NNE 23:09:26 74° WNW 23:13:09 16° SSW
SL-8 Rocket 4.1 23:03:19 10° N 23:09:30 72° ENE 23:14:16 18° SSE
Cosmos 1943 Rocket 3.9 23:05:26 10° WSW 23:10:31 33° NW 23:15:36 10° NNE
SL-8 R/B 3.9 23:06:01 10° WSW 23:10:33 46° S 23:15:05 10° E
USA 238 DEB 4.5 23:08:40 10° WSW 23:14:52 53° NNW 23:21:48 10° NE
USA 238 4.5 23:08:52 10° WSW 23:15:05 53° NNW 23:22:01 10° NE
CZ-2C R/B 3.3 23:10:59 10° NNE 23:16:21 58° E 23:19:49 20° S
SAR-Lupe-2 3.2 23:15:20 26° SSE 23:17:01 83° ENE 23:20:15 10° NNW
Meteor 2-15 4.4 23:12:43 10° N 23:18:51 86° E 23:23:25 19° SSE
Cosmos 1733 Rocket 3.4 23:15:09 10° NNW 23:19:21 53° W 23:22:03 21° SSW
CZ-2C R/B 2.7 23:16:25 17° SSE 23:20:25 74° ENE 23:25:45 10° NNW
Cosmos 1833 4.3 23:14:58 10° NNW 23:20:39 81° ENE 23:25:37 14° SE
BREEZE-M R/B 4.5 23:16:03 10° W 23:21:38 71° S 23:33:28 10° E
SL-12 R/B(2) 4.4 23:15:45 10° SSW 23:23:45 72° SE 23:33:41 10° NE
ALOS 2 3.2 23:21:23 20° SSW 23:24:08 45° W 23:28:23 10° NNW
Cosmos 2341 Rocket 4.0 23:17:52 10° N 23:24:10 85° E 23:28:53 18° SSE
Cosmos 1707 Rocket 3.5 23:22:47 21° SSW 23:25:43 85° W 23:30:10 10° N
Cosmos 2228 Rocket 3.1 23:26:00 22° S 23:28:47 74° E 23:33:12 10° NNE
Cosmos 1703 Rocket 4.4 23:26:16 19° SSE 23:28:58 40° E 23:33:06 10° NNE
IRIDIUM 104 4.4 23:23:45 10° N 23:28:59 73° W 23:32:38 20° S
Cosmos 1356 Rocket 3.3 23:25:43 10° NNW 23:29:46 83° ENE 23:32:18 22° SSE
USA 290 2.4 23:26:47 10° NW 23:29:51 51° WSW 23:31:10 28° S
Cosmos 2297 Rocket 4.2 23:26:23 10° NNW 23:31:10 27° NE 23:35:56 10° E
COSMOS 2406 4.3 23:28:58 10° NW 23:33:52 30° WSW 23:37:19 17° SSW
Cosmos 1315 Rocket 3.0 23:32:14 10° NNW 23:35:59 54° W 23:38:04 23° SSW
Cosmos 2369 Rocket 2.2 23:32:23 18° SSW 23:36:36 73° ESE 23:42:13 10° NE
Cosmos 1862 Rocket 3.8 23:34:20 19° SSW 23:37:18 61° WNW 23:41:35 10° N
ARIANE 6 FM1 Upper Stage 2.6 23:34:00 12° SW 23:37:47 84° SE 23:41:54 10° NE
Cosmos 2297 3.8 23:36:40 18° SSW 23:40:56 70° ESE 23:46:38 10° NE
USA 276 1.9 23:41:22 10° WSW 23:43:54 44° S 23:46:40 10° ESE
Cosmos 1656 Rocket 4.3 23:41:38 10° SW 23:47:01 53° NW 23:52:31 10° NNE
USA 308 2.2 23:45:16 10° WSW 23:48:21 82° SSE 23:52:32 10° ENE
Okean 1-7 3.8 23:48:24 16° SW 23:51:28 43° WNW 23:55:33 10° N
USA 215 3.9 23:47:35 17° SSE 23:51:58 36° SW 23:57:55 10° WNW
PSLV R/B 4.4 23:48:21 10° N 23:52:51 49° WNW 23:56:35 14° SW
